Weather in El Minya

Egypt     28°16′55″N   30°09′21″E
temp.,
°C
wind,
m/s
gust,
m/s
humid.,
%
clouds,
%
prec.,
mm/h
press.,
hPa
HPBL,
m
12 april, mon
mon1223:00+15n712430 0.0 1021293
02:00+12nne611550 0.0 1020292
05:00+10nne510650 0.0 1020222
08:00+14nne79530 0.0 1021584
11:00+19n67270 0.0 10211151
14:00+23n67180 0.0 10181542
17:00+23n78160 0.0 10181649
20:00+19n612240 0.0 1019221
13 april, tue
tue1323:00+16nne713410 0.0 1020311
02:00+13n611540 0.0 1019252
05:00+11nne48660 0.0 1019168
08:00+15nne68500 0.0 1020441
11:00+21n55242 0.0 1020966
14:00+25n66150 0.0 10181311
17:00+25n661494 0.0 10161158
20:00+22n452098 0.0 101764
14 april, wed
wed1423:00+19n45250 0.0 101743
02:00+17nne46390 0.0 101668
05:00+15nne59460 0.0 1017125
08:00+19ne79300 0.0 1017331
11:00+26ne44150 0.0 1016802
14:00+30n331168 0.0 10141461
17:00+30n541228 0.0 10131505
20:00+25n44145 0.0 101428
15 april, thu
thu1523:00+23nne57185 0.0 101468
02:00+20nne56255 0.0 101367
05:00+19ne44330 0.0 101438
08:00+23ne33240 0.0 1015221
11:00+30nne12130 0.0 10141004
14:00+33n2295 0.0 10121818
17:00+33nne5487 0.0 10112123
20:00+28nne55116 0.0 101241
16 april, fri
fri1623:00+26ne69131 0.0 101286
02:00+23ne57187 0.0 101169
05:00+21ne56260 0.0 101154
08:00+26ne34183 0.0 1012232
11:00+33ne43100 0.0 1012995
14:00+35nne3380 0.0 10102586
17:00+34nne6490 0.0 10102030
20:00+29nne69130 0.0 1011101